Bedford, MA

8:52 PM EDT on March 27, 2017 (GMT -0400)
Hanscom

Weather History for KBED - February, 2011

Change the Weather History Date:

Thursday, February 24, 2011

  Actual Average Record
Temperature  
Mean Temperature 24 °F -  
Max Temperature 42 °F 39 °F 73 °F (2017)
Min Temperature 7 °F 22 °F -13 °F (2015)
Degree Days  
Heating Degree Days 40    
Moisture  
Dew Point 12 °F    
Average Humidity 55    
Maximum Humidity 89    
Minimum Humidity 25    
Precipitation  
Precipitation 0.01 in - - ()
Sea Level Pressure  
Sea Level Pressure 30.20 in    
Wind  
Wind Speed 3 mph (SSW)    
Max Wind Speed 14 mph    
Max Gust Speed 25 mph    
Visibility 10 miles    
Events Rain    
Averages and records for this station are not official NWS values.
T = Trace of Precipitation, MM = Missing Value Source: NWS Daily Summary

Daily Weather History Graph

Daily Weather History Graph

Search for Another Location

Airport or City:

Trip Planner

Search our weather history database for the weather conditions in past years. The results will help you decide how hot, cold, wet, or windy it might be!

Date:

Astronomy

Feb. 24, 2011 Rise Set
Actual Time 6:29 AM EST 5:28 PM EST
Civil Twilight 6:00 AM EST 5:56 PM EST
Nautical Twilight 5:27 AM EST 6:29 PM EST
Astronomical Twilight 4:55 AM EST 7:02 PM EST
Moon 12:28 AM EST (2/24) 9:50 AM EST (2/24)
Length of Visible Light 11h 56m
Length of Day
10h 59m
Waning Gibbous, 53% of the Moon is Illuminated
Feb 24
Waning Gibbous
Feb 24
Last Quarter
Mar 4
New
Mar 12
First Quarter
Mar 19
Full

Hourly Weather History & Observations

Time (EST) Temp. Windchill Dew Point Humidity Pressure Visibility Wind Dir Wind Speed Gust Speed Precip Events Conditions
12:56 AM 12.0 °F - 1.0 °F 61% 30.32 in 10.0 mi Calm Calm - N/A   Clear
1:56 AM 12.0 °F - 1.9 °F 64% 30.32 in 10.0 mi Calm Calm - N/A   Clear
2:56 AM 10.4 °F - 1.4 °F 67% 30.26 in 10.0 mi Calm Calm - N/A   Clear
3:56 AM 9.0 °F - 1.9 °F 73% 30.32 in 10.0 mi Calm Calm - N/A   Clear
4:56 AM 8.6 °F - 1.4 °F 73% 30.27 in 10.0 mi Calm Calm - N/A   Clear
5:56 AM 8.1 °F - 3.0 °F 80% 30.31 in 10.0 mi Calm Calm - N/A   Clear
6:56 AM 7.0 °F - 1.9 °F 80% 30.33 in 10.0 mi Calm Calm - N/A   Clear
7:56 AM 12.9 °F - 6.1 °F 74% 30.32 in 10.0 mi Calm Calm - N/A   Clear
8:56 AM 19.9 °F - 3.9 °F 50% 30.32 in 10.0 mi Calm Calm - N/A   Clear
9:56 AM 28.0 °F - 3.9 °F 36% 30.29 in 10.0 mi Calm Calm - N/A   Clear
10:56 AM 35.1 °F 29.3 °F 12.9 °F 40% 30.26 in 10.0 mi South 6.9 mph - N/A   Clear
11:56 AM 37.0 °F 30.4 °F 10.0 °F 33% 30.23 in 10.0 mi SSW 9.2 mph - N/A   Clear
12:56 PM 39.9 °F 35.8 °F 7.0 °F 26% 30.19 in 10.0 mi SSW 5.8 mph - 0.00 in   Clear
1:56 PM 39.9 °F 33.4 °F 7.0 °F 26% 30.17 in 10.0 mi South 10.4 mph - N/A   Partly Cloudy
2:56 PM 42.1 °F 36.6 °F 8.1 °F 25% 30.15 in 10.0 mi SSE 9.2 mph - N/A   Overcast
3:56 PM 41.0 °F 33.9 °F 14.0 °F 33% 30.13 in 10.0 mi South 12.7 mph - N/A   Overcast
4:56 PM 39.2 °F 33.0 °F 19.4 °F 45% 30.03 in 10.0 mi South 9.2 mph - N/A   Clear
5:56 PM 37.9 °F 32.7 °F 21.0 °F 51% 30.12 in 10.0 mi South 6.9 mph - N/A   Overcast
6:56 PM 37.9 °F 32.7 °F 21.0 °F 51% 30.11 in 10.0 mi SSW 6.9 mph - N/A   Overcast
7:56 PM 37.0 °F 29.8 °F 23.0 °F 57% 30.11 in 10.0 mi SW 10.4 mph 25.3 mph N/A   Overcast
8:56 PM 37.0 °F 29.8 °F 23.0 °F 57% 30.09 in 10.0 mi SSW 10.4 mph - N/A   Overcast
9:56 PM 37.0 °F 28.5 °F 25.0 °F 62% 30.07 in 10.0 mi SSW 13.8 mph - N/A   Overcast
10:56 PM 37.0 °F 29.3 °F 28.0 °F 70% 30.07 in 10.0 mi SW 11.5 mph 20.7 mph 0.00 in   Overcast
11:56 PM 34.0 °F 28.8 °F 30.9 °F 89% 30.06 in 9.0 mi SSW 5.8 mph - 0.01 in Rain Light Rain